Theta_e
315 315 315 316 316 317 318 318 318 318 319 320 319 317 316 315 317 309 304 311 311 313 315 310 309 308 307 302 302 304 297 285 283 286 282 284 284 286 287 284 285 285 285 287 287
314 314 314 315 315 316 317 317 318 318 319 319 319 315 311 314 307 302 311 315 315 312 305 303 302 304 299 298 298 298 293 283 284 287 283 283 284 284 284 284 284 284 286 286 286
313 313 313 313 314 315 316 316 317 318 319 318 316 314 314 309 303 301 312 312 315 315 306 306 304 302 296 296 293 291 285 285 285 287 286 283 283 284 283 283 283 283 285 286 285
312 312 312 313 313 314 315 315 315 316 317 316 314 311 313 306 291 304 308 311 317 310 308 305 303 297 294 290 294 285 287 288 288 289 287 284 285 282 283 285 285 286 286 286 285
311 311 312 312 313 313 314 314 313 314 315 315 314 311 306 298 295 301 308 310 309 307 303 302 299 297 292 293 294 288 287 288 288 287 286 286 283 284 283 286 286 286 286 285 285
310 310 311 311 312 312 313 314 312 314 313 314 313 310 302 292 299 300 300 301 306 305 302 302 298 299 295 293 291 291 290 288 289 288 286 284 284 283 286 287 286 287 287 287 286
309 309 310 311 311 312 313 313 313 312 312 313 310 303 297 292 298 299 299 298 300 304 301 302 303 299 297 291 294 291 289 291 290 290 289 291 286 283 289 288 288 288 288 289 289
309 309 310 311 311 312 312 311 312 309 311 308 306 304 293 297 300 297 298 298 299 301 301 302 304 299 296 296 293 291 291 291 288 290 291 288 288 290 290 288 288 290 290 290 291
309 309 310 310 311 312 312 309 310 306 307 306 301 302 293 298 295 297 296 294 296 297 298 298 298 295 295 292 291 292 286 286 288 288 287 288 290 293 291 289 289 290 290 290 290
309 309 309 310 311 311 307 305 308 303 302 298 298 297 293 290 294 294 297 295 294 295 296 295 296 292 291 290 282 283 284 286 285 287 286 286 289 292 291 290 290 291 291 291 291
308 308 309 310 311 307 306 304 302 301 296 290 289 290 291 294 294 295 294 293 295 294 290 293 290 285 285 286 286 285 284 284 287 286 285 286 287 289 292 290 290 291 290 291 291
308 308 308 309 309 306 305 298 294 297 292 291 289 290 291 292 290 293 295 292 293 289 291 291 285 286 286 286 285 286 285 285 287 286 286 286 285 289 291 292 292 292 291 291 291
308 308 308 307 306 305 300 297 301 299 294 290 290 290 290 292 288 289 292 290 288 288 288 287 285 285 284 285 284 285 283 282 281 286 287 285 289 287 289 292 294 295 294 293 291
307 307 307 308 304 299 297 299 302 302 294 289 289 290 291 291 289 290 290 289 288 286 285 285 284 283 284 283 284 283 285 284 284 284 284 286 284 291 288 287 290 294 294 292 292
306 306 304 307 302 299 298 301 302 300 288 290 289 293 290 289 288 289 290 290 286 285 285 283 283 283 283 282 284 284 285 284 284 283 282 284 284 293 285 286 288 290 295 295 293
305 304 303 304 304 299 301 301 300 291 289 287 289 287 288 288 287 289 289 290 288 285 285 282 283 283 283 284 284 286 284 285 284 284 285 280 281 288 290 289 291 293 292 296 296
303 302 302 301 300 301 301 301 290 287 289 290 286 286 286 286 286 286 286 287 287 286 287 282 281 282 282 283 285 285 285 287 286 285 284 280 280 288 293 293 291 291 293 294 297
300 300 299 298 301 302 302 300 289 289 288 285 285 285 285 284 286 285 286 286 285 285 285 284 283 281 281 281 280 282 282 284 279 281 282 276 279 288 292 292 291 293 293 294 294
299 302 302 300 301 302 300 286 290 291 289 285 284 284 286 284 284 285 286 286 287 286 286 285 283 280 279 281 281 282 283 280 278 269 276 283 285 288 292 291 291 290 291 292 293
303 303 300 299 301 303 294 289 291 290 287 287 286 288 287 285 283 284 287 289 286 285 285 286 282 278 278 280 280 280 281 281 283 278 279 283 282 284 289 290 290 291 291 292 293
304 306 298 300 301 297 287 287 288 289 289 288 290 287 287 285 285 285 288 288 286 283 285 285 284 280 278 278 281 276 278 278 280 280 280 279 285 292 289 290 289 292 293 294 294
302 296 298 300 293 287 285 288 288 287 288 287 287 288 286 287 284 284 286 288 287 286 284 286 288 283 283 279 279 281 281 282 282 280 278 276 278 291 291 289 286 289 292 293 295
296 292 296 294 285 285 288 285 286 286 287 286 287 287 289 287 286 286 290 285 285 285 285 285 287 282 284 278 278 276 279 280 278 281 278 278 281 287 286 287 286 287 290 292 294
291 286 288 289 286 287 286 286 284 284 283 283 283 284 283 282 285 287 288 284 283 285 285 285 285 283 279 283 284 279 277 278 279 278 279 280 282 287 289 289 290 290 290 291 294
292 287 288 283 283 283 283 283 283 282 283 283 281 281 281 282 283 284 284 284 283 282 283 284 280 282 283 284 283 280 280 281 277 278 276 280 281 286 288 289 290 291 291 290 290
286 285 286 284 284 283 284 282 283 284 286 283 281 284 287 283 284 281 283 283 283 282 281 280 280 279 277 282 282 279 282 282 282 282 281 280 279 286 288 289 288 289 289 288 289
286 286 288 285 285 285 283 285 285 288 287 290 290 287 285 287 291 292 291 290 289 285 282 280 280 279 275 277 276 275 279 280 282 284 284 280 285 289 288 287 287 288 288 287 287
Wind_Speed
10 10 10 11 12 13 13 12 12 12 11 11 10 6 2 8 10 30 28 20 19 20 16 11 10 5 13 9 11 7 4 4 3 2 1 1 0 2 2 2 3 2 2 4 7
10 10 11 11 11 12 13 13 13 12 10 10 11 5 2 4 7 26 19 27 22 13 16 16 15 15 7 9 7 9 5 4 2 4 3 3 3 3 2 1 0 2 3 2 2
9 9 9 10 11 12 13 12 12 12 11 9 9 5 1 5 3 13 22 26 22 12 6 10 5 12 20 11 12 8 6 7 5 6 6 3 2 1 1 1 2 3 3 3 2
8 9 10 11 11 12 13 12 11 11 11 11 8 7 5 6 5 9 20 22 14 15 11 19 21 10 11 19 12 8 7 4 7 6 5 4 3 1 4 2 3 2 1 1 3
9 10 10 11 12 13 14 13 12 10 10 11 8 8 5 9 7 10 15 17 12 18 17 14 18 14 12 9 12 12 6 8 7 5 4 5 2 2 6 4 4 4 5 5 3
9 9 9 9 11 12 13 13 10 10 8 11 12 11 2 7 5 9 10 13 16 18 16 16 9 12 13 10 13 8 10 4 1 0 3 1 2 2 6 7 7 8 8 9 9
10 10 9 9 10 12 13 12 10 9 7 9 9 3 16 7 4 8 8 5 10 11 15 11 8 2 5 7 9 5 4 5 2 2 3 6 5 8 8 13 10 11 10 11 11
11 11 12 12 13 13 12 11 9 8 6 8 6 1 6 2 6 7 11 2 5 6 9 5 8 13 7 9 6 4 4 6 7 3 2 3 2 6 11 12 12 12 11 10 11
11 12 13 14 14 14 14 10 6 5 7 5 2 4 4 1 4 8 8 7 4 1 5 4 1 5 8 4 3 5 9 8 2 2 5 7 11 7 12 12 10 10 10 11 11
12 13 13 14 13 12 12 5 3 3 4 0 3 4 3 4 4 7 7 6 4 3 4 0 1 6 10 8 5 10 11 10 9 5 6 11 17 5 12 14 13 12 12 13 13
12 13 14 16 17 13 7 3 4 3 11 6 4 3 3 7 2 7 5 7 2 2 5 5 7 10 8 7 4 1 5 9 9 4 13 6 12 12 14 16 16 15 14 14 14
12 13 15 16 15 12 4 5 4 4 2 2 1 1 2 4 3 9 11 3 5 6 3 4 6 4 3 2 3 4 4 6 6 2 9 13 23 16 14 19 18 16 16 15 14
12 13 14 15 7 4 8 5 4 4 3 2 3 3 3 5 3 8 10 3 6 6 10 7 3 1 4 4 7 2 4 5 6 14 6 15 7 3 8 15 16 18 16 16 17
12 14 14 14 0 2 4 4 5 4 3 2 1 2 2 3 1 3 5 4 3 3 3 4 2 3 3 2 7 4 4 5 8 10 4 9 5 4 5 11 17 17 19 18 19
11 12 8 12 2 3 3 5 4 3 4 1 2 1 3 3 4 2 1 3 2 3 3 3 1 3 5 4 3 4 7 7 7 3 3 3 2 1 3 7 17 20 21 21 19
10 13 5 1 4 2 3 3 3 7 5 1 3 3 3 1 1 3 1 2 3 1 2 3 1 0 2 2 4 9 7 6 3 3 3 3 3 7 3 3 3 6 19 21 22
7 8 6 2 2 3 3 3 6 4 2 4 1 3 2 2 1 3 2 4 4 4 3 4 3 2 2 3 4 6 8 4 2 3 2 3 5 12 10 8 7 3 9 17 19
5 2 5 3 3 4 3 1 2 3 6 1 2 2 4 3 2 3 4 5 4 4 4 3 2 2 1 2 2 2 3 4 7 5 7 2 8 3 4 5 4 9 9 8 17
5 0 1 3 4 3 2 4 7 5 3 5 2 3 1 1 3 3 3 4 2 7 4 5 2 4 3 2 3 2 2 2 0 2 3 4 6 12 2 6 9 12 9 13 14
4 3 1 6 5 3 4 5 4 0 4 2 2 3 3 2 2 1 2 2 2 0 2 3 7 1 3 2 2 3 2 2 3 5 7 5 4 7 5 3 3 5 8 11 12
2 4 3 6 3 1 4 8 3 3 3 3 3 3 6 5 3 2 5 1 2 3 1 1 2 4 2 9 7 5 5 5 3 4 5 7 4 5 8 2 3 5 5 6 10
1 4 4 5 2 1 4 5 3 2 3 4 3 4 5 5 4 5 6 5 5 5 2 2 2 6 10 4 4 3 4 7 5 5 5 5 11 17 1 5 6 9 8 7 7
3 1 2 3 4 3 2 4 2 5 5 3 4 5 3 4 4 8 2 5 3 0 1 1 2 7 3 3 1 5 6 7 2 2 11 11 13 1 2 2 5 9 14 11 9
4 2 2 3 2 2 5 4 4 2 2 1 1 1 2 3 5 4 2 3 2 2 2 1 1 7 15 17 16 10 6 7 7 7 17 25 39 17 23 24 19 15 16 16 16
1 2 2 5 4 2 2 3 1 2 1 3 2 4 3 2 4 4 5 3 3 2 2 1 10 12 19 20 18 25 18 17 16 18 20 39 34 20 27 27 25 27 30 21 20
4 4 2 2 3 5 4 4 4 2 2 2 2 5 1 3 7 3 3 3 6 4 2 2 5 4 25 10 17 33 18 21 24 27 32 31 40 20 24 23 24 25 20 17 16
1 1 2 6 4 4 6 6 6 6 5 5 6 5 8 12 11 12 11 11 14 9 6 6 4 4 16 3 9 21 13 19 19 19 20 25 28 20 23 22 24 21 9 12 14
Wind_Direction
40 31 25 21 15 12 6 2 357 354 347 337 346 325 309 326 325 27 31 348 347 337 325 312 13 352 46 39 27 304 104 85 48 10 96 203 99 67 357 254 318 100 328 318 307
25 18 13 10 6 6 3 356 349 349 350 348 349 43 135 318 34 35 358 356 350 334 14 23 21 30 60 29 23 356 68 108 333 356 116 82 9 18 298 283 97 303 195 279 311
14 7 359 358 360 359 359 354 346 343 351 5 358 15 212 273 108 11 353 348 339 358 342 9 45 41 32 43 18 20 65 113 67 97 123 121 158 249 307 296 222 296 314 3 13
3 356 356 354 349 348 350 347 344 347 348 351 358 300 266 222 47 358 345 338 337 355 33 49 52 55 55 49 41 91 68 96 162 159 162 175 108 148 218 239 182 228 314 309 335
359 356 352 347 346 343 344 345 343 346 343 346 345 322 256 65 57 344 340 356 21 37 40 57 61 74 63 38 59 66 74 68 87 97 70 129 190 268 226 201 203 214 208 191 206
357 357 351 343 336 337 338 340 349 349 340 351 347 312 294 71 351 344 345 14 24 48 53 59 57 96 76 54 46 57 74 99 58 249 152 50 298 302 206 197 206 217 216 210 201
350 348 338 331 333 332 331 331 330 337 343 339 341 6 60 70 334 350 349 16 16 24 61 69 88 96 115 108 115 154 6 164 169 304 275 289 217 231 180 190 210 211 221 213 211
357 351 340 336 331 325 323 320 310 314 327 345 302 321 74 352 328 351 345 249 30 50 77 73 93 85 60 112 141 253 251 323 58 346 113 197 340 197 177 196 212 204 210 212 209
356 349 341 334 330 323 318 311 296 302 319 298 237 297 74 172 341 340 353 339 322 90 63 98 51 109 166 257 168 59 2 2 148 47 316 253 317 180 188 209 224 214 212 215 213
353 346 336 327 323 324 316 280 293 226 305 182 88 147 113 357 315 325 349 325 325 297 197 346 175 88 40 47 61 342 355 343 352 11 316 260 265 224 211 218 227 220 218 213 212
354 345 338 331 329 339 310 224 212 165 41 48 4 339 12 326 260 2 357 320 254 91 12 19 52 46 38 43 103 248 301 312 335 16 326 274 276 273 207 226 230 224 216 217 215
352 348 340 331 322 325 303 49 42 359 51 47 30 302 352 336 307 28 341 336 4 24 342 203 55 18 330 330 295 326 326 1 302 307 320 309 294 263 210 219 223 224 223 216 211
347 346 340 333 313 355 46 46 340 319 292 79 34 354 345 327 26 346 353 348 18 22 7 40 76 333 318 333 340 48 5 1 323 315 93 313 268 194 218 208 218 226 227 220 214
347 348 345 339 256 3 55 1 334 323 277 88 85 81 259 322 214 4 9 347 103 40 19 50 92 309 306 343 331 323 17 316 327 352 351 12 289 261 181 219 225 223 223 224 214
343 348 347 15 90 46 15 326 320 244 350 79 81 34 315 323 341 104 26 248 16 79 258 68 178 327 305 12 336 351 330 322 319 345 289 37 287 241 136 247 235 225 223 220 222
344 352 317 112 75 70 299 289 244 36 266 10 329 332 296 41 39 323 341 59 10 174 57 64 66 273 59 283 277 312 285 247 286 307 326 123 29 290 186 241 358 244 216 218 212
349 16 33 342 67 337 293 225 31 133 339 297 326 353 332 323 321 350 316 243 272 306 237 165 128 107 292 264 188 282 298 306 338 354 317 106 269 259 285 271 242 262 218 210 216
2 339 35 49 333 292 230 72 133 202 226 108 269 259 264 1 159 309 282 284 210 237 291 304 286 187 71 9 335 33 351 323 309 307 305 23 233 243 266 212 244 236 234 229 208
298 274 118 22 330 269 246 68 214 207 103 157 193 247 222 169 288 314 243 278 281 207 283 300 265 106 54 334 313 70 209 106 61 113 274 230 260 277 252 269 243 233 225 221 219
309 286 71 341 329 264 75 231 254 307 128 157 270 221 262 188 253 199 250 142 187 173 55 20 281 62 89 242 142 295 26 240 152 287 283 222 260 247 269 261 244 249 251 242 230
261 266 42 335 279 147 178 223 262 182 201 227 248 270 264 300 247 255 294 210 26 105 239 274 212 114 172 205 194 163 200 214 318 249 266 292 240 233 253 308 323 319 316 262 220
195 234 21 318 110 43 173 202 334 168 175 240 270 253 244 294 240 256 250 240 78 150 237 57 237 259 278 80 9 321 286 193 221 201 243 280 267 259 311 313 333 300 291 286 277
199 1 349 332 172 218 239 244 261 195 192 181 246 237 210 231 276 229 234 43 83 117 22 92 241 309 240 156 87 216 195 230 354 289 235 261 247 236 105 294 297 280 288 282 264
135 197 349 48 354 183 157 213 219 46 82 82 283 15 59 246 238 289 358 61 80 81 76 161 260 243 262 289 328 259 207 225 210 248 272 247 276 263 281 286 287 271 260 265 274
85 220 278 173 215 196 131 110 184 120 56 37 79 102 123 270 305 264 1 308 122 52 70 353 267 259 262 276 286 276 273 267 230 242 248 275 268 287 286 294 296 292 287 293 287
136 146 42 76 62 131 178 203 186 115 110 284 192 179 263 239 232 289 348 267 264 109 184 91 279 331 282 259 266 275 278 272 259 256 256 259 269 275 282 281 278 277 287 284 288
135 87 102 140 152 179 188 171 188 151 221 240 211 195 233 252 262 273 275 259 254 255 215 186 233 259 271 68 314 275 234 241 261 249 246 256 265 287 273 262 263 279 280 290 291